Location: Baia Mare
(47.6580°N, 23.5876°E)
Time: 08:58:30
(UTC+03:00)

ISS - Pass Details

Date: 15 December 2014
Orbit: 411 x 421 km, 51.6° (Epoch: 14 October)

Event Time Altitude Azimuth Distance (km) Brightness Sun altitude
Rises 17:19:54 0° 291° (WNW) 2,351 0.7 -7.4°
Reaches altitude 10° 17:22:02 10° 296° (WNW) 1,485 -0.4 -7.8°
Maximum altitude 17:25:19 55° 16° (NNE) 499 -3.6 -8.3°
Drops below altitude 10° 17:28:35 10° 96° (E) 1,479 -1.5 -8.8°
Enters shadow 17:28:49 - 96° (E) 1,570 -1.4 -8.8°
